Location: Cheyres
(46.8153°N, 6.7877°E)
Time: 00:43:37
(UTC+00:00)

SEEDS - Pass Details

Date: 08 July 2022
Orbit: 579 x 598 km, 97.6° (Epoch: 06 August)

Event Time Altitude Azimuth Distance (km) Brightness Sun altitude
Rises 02:39:40 0° 30° (NNE) 2,810 ? -9.5°
Reaches altitude 10° 02:42:41 10° 54° (NE) 1,903 ? -9.1°
Maximum altitude 02:45:04 15° 90° (E) 1,603 ? -8.9°
Drops below altitude 10° 02:47:26 10° 125° (SE) 1,894 ? -8.6°
Sets 02:50:25 0° 150° (SSE) 2,788 ? -8.2°
